map of OSI home
OSI - Airport
Location
City:  Osijek, Virovitica-Podravina, Croatia
ICAO:LDOS
IATA:OSI

Details
Type:Airport (Aerodrome, Airfield)
Latitude:4527'46"N (45.462667)
Longitude:1848'37"E (18.810156)
Datum:WGS 1984
Elevation:290 ft (88 m)
Variation:4.56E (WMM2015 magnetic declination)
0.11 annual change
Runways:1
Longest:8199 × 148 ft (2499 × 45 m), paved

Time
Time Zone:UTC+1 (DST+2)
Local Time:

Weather
METAR:LDOS 211900Z 04003KT 360V070 9999 SCT040 10/07 Q1024
TAF:LDOS 211725Z 2118/2218 01005KT 9999 BKN035 TX12/2212Z TN08/2205Z PROB40 2200/2208 4000 -RA BR BKN010

Related Locations
Nearby:
Farthest:CHT: 11680 mi / 18797 km
Waitangi [Tuuta], CIT, NZ

Find:

   beyond  
but within

Other Information
Maps:
NOTAMs:
Links:
Sources:

  
  • flag of Croatia
  • flag of Virovitica-Podravina
  

Sectional Chart

Flight Planning
at skyvector.com

Satellite Image

Google Maps Satellite view

 

Copyright © 2004-2018 Karl L. Swartz. All rights reserved.
The Great Circle Mapper name and logo are trademarks of the Great Circle Mapper.
All other trademarks mentioned herein belong to their respective owners.
Please see credits for attibutions and further copyright information.

  Follow gcmap on Facebook Follow gcmap on Twitter Follow gcmap on Google+ GCmap on LinkedIn

hCard Microformat

Geo Microformat